STARLINK-31747, 59564

Orbit data source: Space-Track

STARLINK-31747, 59564 is a payload satellite owned by SpaceX/Seattle (US) in LEO that was launched on Tue, 23 Apr 2024 UTC via an FALCON 9 launch vehicle from the Air Force Eastern Test Range (AFETR). Payload-class satellites include a variety of spacecraft equipped with specific instruments for various scientific and technological missions. These include communications satellites like Starlink; space stations such as the ISS; scientific satellites like the Hubble; Earth observation satellites from companies like Planet Labs, Umbra, and HawkEye 360; GPS; miniature CubeSats for education and research; and military/defense satellites.

Loading next visibility...
Identifier
59564, 2024-076A
Orbit
LEO
Last TLE update
9 hours ago
Origin
Manufacturer
SpaceX/Seattle
Mission
Operational spacecraft
Bus & Motor
STARLINK V2M, Unknown motor
Mass
730 kg wet, ~700 kg dry
Launch date (UTC)
2024-04-23 (1 year ago)
Launch vehicle
FALCON 9
Launch site
Air Force Eastern Test Range (AFETR)
Object type
Payload
Rocket body
Debris
Shape & HBR
Unknown
Radar Cross Section
Large (>1 m²)

Expand to show TLE details & history

TLE from 9 hours ago
0 STARLINK-31747
1 59564U 24076A   25128.91720770  .00000299  00000-0  14428-4 0  9992
2 59564  43.0045 285.7079 0002046 269.3229  90.7393 15.40692329 59938
Epoch: 2025-05-08T22:00Z
Definitive object data (Epoch: 2025-05-08T22:00:46.745Z)
Latitude
-0.00002°
Longitude
88.53228°
Altitude
443.858 km
Speed
7.648 km/s
True Right ascension
19h 02m 49s
True Declination
0° 00' 00"
Sunlit
Object was in full shadow at TLE epoch
Visualization TLE readout
Latitude
-32.61801°
Longitude
-50.54742°
Altitude
452.031 km
Speed
7.642 km/s
Apparent Right ascension
06h 44m 28s
Apparent Declination
-49° 04' 24"
Sunlit
Object is in daylight
Visualization observer readout
Local Sidereal Time
14:56:33
Azimuth
237.462° WSW
Elevation
-49.34°
Doppler factor
1
Orbital elements
Apogee altitude
447.417 km
Perigee altitude
444.624 km
Semi-major axis
6,824.157 km
Eccentricity
0.0002046
Inclination
43.0045°
RAAN
285.7079°
Arg. of periapsis
269.3229°
True anomaly
90.76274°
Mean anomaly
90.7393°
Eccentric anomaly
90.75102°
Mean motion
3.85008 °/min
BSTAR
0.000014428
Orbital period
93.5 mins
Loading maneuver chart data...
Loading SW <> Apogee altitude chart data...
Loading historical data...
Loading historical data...
Loading historical data...
Loading historical data...
Loading historical data...
Loading historical data...
Loading historical data...

STARLINK-31747 Visibility forecast

Observer location: undefined°, undefined°

Span
Click to sort rows by Start time (UTC) header in descending order
Start Az.
Max El. time (UTC)
Max El. Az.
Max El.
End time (UTC)
End Az.
6 mins2025-05-09 13:46:39.551Z218.617° SW2025-05-09 13:49:39.551Z149.902° SSE31.567°2025-05-09 13:52:39.551Z83.736° E
5 mins2025-05-09 15:25:39.551Z271.837° WNW2025-05-09 15:27:39.551Z352.945° N41.819°2025-05-09 15:30:39.551Z69.156° E
5 mins2025-05-09 17:03:39.551Z294.127° NW2025-05-09 17:05:39.551Z345.925° N37.526°2025-05-09 17:08:39.551Z80.347° E
5 mins2025-05-09 18:41:39.551Z281.982° WNW2025-05-09 18:43:39.551Z246.612° WSW40.178°2025-05-09 18:46:39.551Z123.402° SE
|